Stations météo

réclame
Mon MeteoGroup
Istres, France (7647): Température de l'air & dewpoint: 15.02.2018 12:00:00 - 21.02.2018 12:00:00 (CET)Istres, France (7647): Température de l'air 5cm: 15.02.2018 12:00:00 - 21.02.2018 12:00:00 (CET)Istres, France (7647): Vitesse du vent & gusts: 15.02.2018 12:00:00 - 21.02.2018 12:00:00 (CET)Istres, France (7647): Direction du vent: 15.02.2018 12:00:00 - 21.02.2018 12:00:00 (CET)Istres, France (7647): reduced air pressure: 15.02.2018 12:00:00 - 21.02.2018 12:00:00 (CET)Istres, France (7647): visibility: 15.02.2018 12:00:00 - 21.02.2018 12:00:00 (CET)Istres, France (7647): Quantités de précipitations: 15.02.2018 12:00:00 - 21.02.2018 12:00:00 (CET)
Date & Time tt [°C] td [°C] tt 5cm [°C] ff [km/h] ff [knt] fx [km/h] fx [knt] dd ppp [hPa] vv [km] rr [mm]
21.02.2018 12:00:00 - - - - - - - - - - -
21.02.2018 11:00:00 3,9 -3,6 3,1 19 11 30 16 N 1009,8 13 0,0
21.02.2018 10:00:00 3,3 -2,9 2,8 19 10 41 22 N 1009,1 10 0,0
21.02.2018 09:00:00 2,5 -2,2 2,0 30 16 56 30 N 1007,5 9 0,0
21.02.2018 08:00:00 2,2 -3,5 1,4 31 17 53 29 N 1007,0 8 0,0
21.02.2018 07:00:00 2,3 -3,8 1,8 33 18 66 36 N 1006,7 12 0,0
21.02.2018 06:00:00 2,7 -4,1 2,1 39 21 61 33 NNW 1006,4 12 0,0
21.02.2018 05:00:00 3,3 -4,4 2,6 31 17 65 35 N 1007,0 15 0,0
21.02.2018 04:00:00 4,1 -4,1 3,5 42 23 65 35 N 1007,2 15 0,0
21.02.2018 03:00:00 4,7 -4,1 4,0 36 20 62 34 N 1008,0 17 0,0
21.02.2018 02:00:00 5,4 -4,5 4,7 37 20 67 36 NNW 1008,8 18 0,0
21.02.2018 01:00:00 5,6 -3,2 4,8 42 23 64 35 NNW 1009,2 17 0,0
21.02.2018 00:00:00 6,2 -3,5 5,3 35 19 75 40 NNW 1009,7 25 0,0
20.02.2018 23:00:00 6,7 -3,6 5,9 45 24 72 39 NNW 1008,9 32 0,0
20.02.2018 22:00:00 7,3 -3,0 6,5 36 20 70 38 NNW 1009,1 30 0,0
20.02.2018 21:00:00 7,6 -3,9 6,9 41 22 85 46 NNW 1008,6 20 0,0
20.02.2018 20:00:00 8,4 -4,4 7,7 58 31 103 56 NNW 1008,2 51 0,0
20.02.2018 19:00:00 8,9 -6,9 8,0 54 29 85 46 NNW 1008,0 60 0,0
20.02.2018 18:00:00 9,8 -3,9 9,5 45 25 76 41 NNW 1007,6 33 0,0
20.02.2018 17:00:00 10,7 -3,8 10,8 60 33 85 46 NNW 1007,2 17 0,0
20.02.2018 16:00:00 11,4 -3,2 11,0 65 35 85 46 NNW 1007,2 14 0,0
20.02.2018 15:00:00 11,9 -2,4 10,9 47 25 72 39 NW 1007,6 29 0,0
20.02.2018 14:00:00 10,0 -3,7 10,4 54 29 74 40 NNW 1007,8 17 0,0
20.02.2018 13:00:00 9,1 -3,5 9,6 54 29 79 43 NNW 1008,3 17 0,0
20.02.2018 12:00:00 8,4 -3,2 8,8 46 25 67 36 NNW 1008,7 35 0,0
20.02.2018 11:00:00 7,9 -4,2 8,6 51 27 73 39 NNW 1008,9 18 0,0
20.02.2018 10:00:00 8,1 -5,7 7,3 49 26 68 37 NNW 1008,8 25 0,0
20.02.2018 09:00:00 7,1 -4,1 6,4 44 24 58 31 NNW 1009,1 19 0,0
20.02.2018 08:00:00 6,3 -3,1 5,7 40 21 55 30 NNW 1009,6 10 0,0
20.02.2018 07:00:00 6,4 -3,8 5,8 23 12 44 24 NNW 1009,9 29 0,0
20.02.2018 06:00:00 6,2 -3,2 5,7 29 16 59 32 NNW 1010,4 33 0,0
20.02.2018 05:00:00 6,5 -4,3 5,7 40 22 57 31 NNW 1010,4 42 0,0
20.02.2018 04:00:00 6,5 -5,5 4,9 25 13 45 24 NNW 1010,9 45 0,0
20.02.2018 03:00:00 5,7 -3,9 4,8 28 15 46 25 NW 1011,3 27 0,0
20.02.2018 02:00:00 6,2 -3,5 5,3 23 13 35 19 NNW 1011,9 35 0,0
20.02.2018 01:00:00 6,7 -5,0 5,2 25 14 44 24 NNW 1012,3 42 0,0
20.02.2018 00:00:00 7,1 -3,5 5,9 35 19 51 27 NW 1012,4 39 0,0
19.02.2018 23:00:00 7,2 -3,1 6,5 34 18 44 24 NNW 1012,5 33 0,0
19.02.2018 22:00:00 7,2 -2,8 6,0 32 17 40 21 NNW 1012,8 31 0,0
19.02.2018 21:00:00 6,8 -1,4 5,2 21 11 31 17 NW 1013,4 32 0,0
19.02.2018 20:00:00 7,4 -0,8 6,3 18 10 26 14 WNW 1013,7 30 0,0
19.02.2018 19:00:00 7,7 -1,5 6,4 13 7 20 11 WNW 1013,9 52 0,0
19.02.2018 18:00:00 9,9 -2,4 8,8 11 6 21 12 NNW 1013,9 48 0,0
19.02.2018 17:00:00 11,2 1,1 11,6 15 8 23 13 NNW 1014,1 20 0,0
19.02.2018 16:00:00 11,5 0,9 14,0 17 9 26 14 NW 1014,3 34 0,0
19.02.2018 15:00:00 12,7 2,5 17,9 13 7 22 12 NW 1014,5 23 0,0
19.02.2018 14:00:00 12,7 4,6 15,7 7 4 15 8 NNW 1015,3 26 0,0
19.02.2018 13:00:00 11,0 3,8 14,2 11 6 21 11 NNW 1016,2 20 0,0
19.02.2018 12:00:00 10,0 3,3 14,7 11 6 22 12 NNW 1016,8 20 0,0
19.02.2018 11:00:00 8,9 3,7 8,9 14 8 26 14 N 1017,1 20 0,0
19.02.2018 10:00:00 6,6 3,9 6,1 15 8 25 14 NNE 1017,4 18 0,0
19.02.2018 09:00:00 5,5 3,3 3,5 13 7 19 10 N 1017,6 18 0,0
19.02.2018 08:00:00 3,7 3,4 3,3 10 6 15 8 N 1017,6 17 0,0
19.02.2018 07:00:00 3,7 3,6 3,5 9 5 19 11 NNE 1017,3 18 0,0
19.02.2018 06:00:00 3,9 3,5 3,6 10 5 19 10 N 1017,1 18 0,0
19.02.2018 05:00:00 4,0 3,4 3,7 12 6 21 11 N 1017,1 20 0,0
19.02.2018 04:00:00 4,2 3,8 3,6 11 6 17 9 N 1017,1 20 0,0
19.02.2018 03:00:00 3,5 3,5 1,6 11 6 18 10 NNE 1017,3 20 0,0
19.02.2018 02:00:00 2,8 2,8 2,0 13 7 22 12 N 1017,5 23 0,0
19.02.2018 01:00:00 3,9 2,7 2,8 10 6 17 9 N 1017,8 26 0,0
19.02.2018 00:00:00 4,0 2,7 2,6 10 5 18 10 N 1018,0 31 0,0
18.02.2018 23:00:00 4,6 2,1 3,3 11 6 21 11 N 1017,9 34 0,0
18.02.2018 22:00:00 5,6 1,3 4,8 16 9 34 18 NNW 1017,6 41 0,0
18.02.2018 21:00:00 6,4 0,1 5,7 27 15 51 27 NNW 1017,3 52 0,0
18.02.2018 20:00:00 7,2 -0,8 6,6 33 18 54 29 NNW 1017,4 60 0,0
18.02.2018 19:00:00 7,9 -0,6 7,4 43 23 67 36 NNW 1017,4 59 0,0
18.02.2018 18:00:00 8,5 -0,3 8,1 41 22 67 36 NNW 1016,8 59 0,0
18.02.2018 17:00:00 9,2 -0,4 9,5 43 23 66 35 NNW 1016,9 37 0,0
18.02.2018 16:00:00 9,6 -0,6 10,3 45 24 72 39 NNW 1016,9 46 0,0
18.02.2018 15:00:00 10,8 -0,7 11,6 52 28 77 42 NNW 1017,5 19 0,0
18.02.2018 14:00:00 10,2 -0,3 10,8 60 32 81 44 NNW 1017,9 22 0,0
18.02.2018 13:00:00 10,0 1,6 11,7 49 27 78 42 NNW 1018,1 24 0,0
18.02.2018 12:00:00 9,6 1,5 11,4 48 26 76 41 NNW 1019,0 26 0,0
18.02.2018 11:00:00 8,8 1,0 10,3 51 27 76 41 NNW 1018,6 25 0,0
18.02.2018 10:00:00 7,9 1,7 8,6 52 28 73 39 NNW 1018,6 18 0,0
18.02.2018 09:00:00 6,8 2,5 6,4 47 26 65 35 NNW 1018,9 18 0,0
18.02.2018 08:00:00 6,3 2,7 5,6 44 24 78 42 NNW 1018,9 21 0,0
18.02.2018 07:00:00 6,6 3,0 5,8 51 28 70 38 NNW 1018,7 60 0,0
18.02.2018 06:00:00 6,8 3,6 6,0 41 22 66 36 NNW 1019,7 60 0,0
18.02.2018 05:00:00 6,9 4,6 6,1 44 24 74 40 NW 1019,4 60 0,0
18.02.2018 04:00:00 7,2 4,5 6,4 49 26 71 38 NW 1019,9 60 0,0
18.02.2018 03:00:00 7,6 4,4 6,8 45 24 66 36 NW 1020,1 60 0,0
18.02.2018 02:00:00 8,2 4,8 6,7 44 24 61 33 NNW 1020,5 60 0,0
18.02.2018 01:00:00 7,2 7,2 5,7 28 15 41 22 NW 1020,7 56 0,0
18.02.2018 00:00:00 6,8 6,8 5,4 24 13 37 20 WNW 1020,8 50 0,0
17.02.2018 23:00:00 6,8 6,8 5,8 18 10 33 18 WNW 1020,4 60 0,0
17.02.2018 22:00:00 7,8 7,4 6,1 19 11 24 13 NW 1020,3 60 0,0
17.02.2018 21:00:00 8,0 7,4 5,9 14 7 27 14 WNW 1020,1 60 0,0
17.02.2018 20:00:00 8,4 8,0 6,1 18 10 24 13 WNW 1020,0 60 0,0
17.02.2018 19:00:00 9,8 9,8 8,3 9 5 16 9 NNW 1020,0 57 0,0
17.02.2018 18:00:00 11,2 10,6 10,5 15 8 22 12 WNW 1019,7 50 0,0
17.02.2018 17:00:00 12,5 12,5 12,5 15 8 26 14 WNW 1019,3 16 0,0
17.02.2018 16:00:00 12,3 12,3 12,5 10 5 16 9 NW 1019,4 9 0,0
17.02.2018 15:00:00 11,7 11,7 11,2 6 3 9 5 N 1019,0 5 0,0
17.02.2018 14:00:00 11,1 11,1 10,8 6 3 9 5 NNE 1019,4 3,0 0,6
17.02.2018 13:00:00 10,8 10,8 10,6 0 0 13 7 N 1019,9 4,8 0,2
17.02.2018 12:00:00 10,7 10,7 10,1 0 0 13 7 N 1020,3 2,4 0,6
17.02.2018 11:00:00 10,5 10,5 9,8 9 5 13 7 ENE 1020,4 1,9 1,6
17.02.2018 10:00:00 10,4 10,4 9,6 6 3 15 8 E 1020,4 6 0,6
17.02.2018 09:00:00 10,5 10,5 10,0 10 5 18 10 E 1020,4 10 0,0
17.02.2018 08:00:00 10,5 10,5 10,3 12 7 26 14 E 1020,2 12 0,0
17.02.2018 07:00:00 10,7 10,7 10,5 16 9 24 13 E 1020,0 12 0,0
17.02.2018 06:00:00 10,8 10,8 10,5 15 8 22 12 E 1020,2 13 0,0
17.02.2018 05:00:00 11,0 11,0 10,7 12 7 18 10 E 1020,2 11 0,0
17.02.2018 04:00:00 11,0 11,0 10,7 11 6 16 9 E 1020,4 10 0,0
17.02.2018 03:00:00 10,8 10,8 10,4 11 6 18 10 E 1020,9 8 0,0
17.02.2018 02:00:00 10,6 10,6 10,3 9 5 16 9 E 1021,3 4,1 0,0
17.02.2018 01:00:00 11,0 11,0 10,3 10 6 16 8 E 1021,5 4,2 0,0
17.02.2018 00:00:00 10,4 10,4 9,5 6 3 9 5 E 1021,9 2,2 0,0
16.02.2018 23:00:00 10,8 10,8 10,3 5 3 14 8 E 1021,8 2,8 0,0
16.02.2018 22:00:00 10,6 10,6 9,8 10 5 14 8 ENE 1021,3 2,5 0,0
16.02.2018 21:00:00 10,4 10,4 9,6 6 4 11 6 E 1021,7 2,9 0,0
16.02.2018 20:00:00 10,8 10,8 9,9 4 2 10 5 SE 1022,1 4,5 0,0
16.02.2018 19:00:00 11,2 11,2 10,2 5 3 9 5 S 1021,9 7 0,0
16.02.2018 18:00:00 12,5 12,5 12,0 6 3 13 7 S 1021,4 14 0,0
16.02.2018 17:00:00 13,8 13,8 14,9 8 4 16 9 S 1021,3 12 0,0
16.02.2018 16:00:00 14,7 13,6 17,1 13 7 19 10 S 1021,7 12 0,0
16.02.2018 15:00:00 16,2 13,7 18,3 11 6 16 9 S 1022,0 14 0,0
16.02.2018 14:00:00 15,5 13,7 19,0 5 3 21 12 S 1022,8 12 0,0
16.02.2018 13:00:00 15,1 14,0 19,0 12 6 20 11 S 1023,7 8 0,0
16.02.2018 12:00:00 13,9 12,6 16,3 5 3 12 7 S 1024,3 5 0,0
16.02.2018 11:00:00 10,6 10,6 10,4 5 3 13 7 N 1024,3 9 0,0
16.02.2018 10:00:00 7,6 7,6 6,9 5 3 16 8 E 1024,3 6 0,0
16.02.2018 09:00:00 6,1 6,1 5,4 5 3 10 6 NE 1023,9 4,1 0,0
16.02.2018 08:00:00 5,8 5,8 5,0 5 3 11 6 E 1023,7 3,2 0,0
16.02.2018 07:00:00 5,1 5,1 4,3 9 5 13 7 NE 1023,4 2,7 0,0
16.02.2018 06:00:00 5,0 5,0 4,7 9 5 14 8 NNE 1023,6 2,5 0,2
16.02.2018 05:00:00 4,8 4,8 3,9 7 4 10 5 ENE 1023,6 1,6 0,0
16.02.2018 04:00:00 4,7 4,7 3,1 4 2 10 5 E 1023,9 0,8 0,0
16.02.2018 03:00:00 4,6 4,6 2,7 8 4 11 6 NE 1023,7 0,8 0,0
16.02.2018 02:00:00 4,9 4,9 2,5 4 2 8 4 E 1023,7 1,9 0,0
16.02.2018 01:00:00 4,1 4,1 2,2 0 0 3 2 N 1023,7 0,3 0,0
16.02.2018 00:00:00 4,3 4,3 2,3 0 0 6 4 N 1023,9 0,6 0,0
15.02.2018 23:00:00 5,4 5,4 3,4 3 2 10 5 NNW 1023,9 0,7 0,0
15.02.2018 22:00:00 4,8 4,8 3,6 5 3 12 7 W 1024,1 5 0,0
15.02.2018 21:00:00 5,9 5,9 4,3 7 4 13 7 WNW 1023,6 10 0,0
15.02.2018 20:00:00 7,7 7,7 6,0 6 4 11 6 NW 1023,5 13 0,0
15.02.2018 19:00:00 8,0 8,0 6,6 8 4 11 6 WNW 1023,2 16 0,0
15.02.2018 18:00:00 9,5 9,5 8,8 9 5 17 9 W 1022,7 23 0,0
15.02.2018 17:00:00 11,4 10,1 12,5 13 7 17 9 WSW 1022,5 38 0,0
15.02.2018 16:00:00 11,1 9,7 12,3 10 6 16 8 W 1022,2 41 0,0
15.02.2018 15:00:00 11,4 9,3 14,2 6 3 12 7 WNW 1021,8 45 0,0
15.02.2018 14:00:00 10,8 9,1 13,4 3 2 10 6 SSW 1022,1 47 0,0
15.02.2018 13:00:00 10,8 8,9 11,7 3 2 11 6 S 1022,7 40 0,0
15.02.2018 12:00:00 8,6 8,6 8,1 8 4 12 7 E 1022,8 25 0,0

tt = Température de l'air
td = dewpoint
tt 5cm = Température de l'air 5cm
ff = Vitesse du vent
fx = gusts
dd = Direction du vent
ppp = reduced air pressure
vv = visibility
rr = Quantités de précipitations

stations d'obs. à proximité